Regional Weather Roundup
Issued by NWS

Home | Current Version | Previous Version | Text Only | Print | Product List | Glossary On
Versions: 1 2 3 4 5 6 7 8 9 10 11 12 13 14 15 16 17 18 19 20 21 22 23 24 25 26 27 28 29 30 31 32 33 34 35 36 37 38 39 40 41 42 43 44 45 46 47 48 49 50
000
ASUS43 KOAX 141502
RWRNE

WEATHER ROUNDUP FOR NEBRASKA
NATIONAL WEATHER SERVICE OMAHA NE
900 AM CST SUN FEB 14 2016

NOTES: SATELLITE DATA IS BEING USED TO AUGMENT CLOUD COVER ABOVE
       12000 FEET.
       "FAIR" INDICATES FEW OR NO CLOUDS BELOW 12,000 FEET WITH NO
       SIGNIFICANT WEATHER AND/OR OBSTRUCTIONS TO VISIBILITY.

  * THESE STATIONS DO NOT REPORT WEATHER SUCH AS RAIN...SNOW OR FOG.

NEZ001>004-019>022-054>056-141600-
NEBRASKA PANHANDLE

CITY           SKY/WX    TMP DP  RH WIND       PRES   REMARKS
SCOTTSBLUFF    CLOUDY    29  24  82 CALM      29.89R
ALLIANCE       PTSUNNY   28  23  81 W5        29.87R WCI  23
CHADRON        CLOUDY    31  25  78 SW6       29.88S WCI  25
SIDNEY         SUNNY     32  24  72 SW6       29.89F WCI  26
$$

NEZ057>060-069>072-079>082-141600-
SOUTHWEST NEBRASKA

CITY           SKY/WX    TMP DP  RH WIND       PRES   REMARKS
NORTH PLATTE   SUNNY     31  25  78 NW7       29.88F WCI  24
IMPERIAL       CLOUDY    32  23  69 NW7       29.92F WCI  26
MCCOOK         SUNNY     33  26  75 W10       29.93R WCI  25
$$

NEZ005>010-023>029-035>040-094-141600-
NORTH CENTRAL NEBRASKA

CITY           SKY/WX    TMP DP  RH WIND       PRES   REMARKS
VALENTINE      SUNNY     33  27  78 NW6       29.82F WCI  28
BROKEN BOW     SUNNY     38  28  67 NW12      29.84F WCI  30
ORD            SUNNY     39  29  67 NW17      29.84S WCI  30
$$

NEZ041-046>049-061>064-073>077-083>087-141600-
SOUTH CENTRAL NEBRASKA

CITY           SKY/WX    TMP DP  RH WIND       PRES   REMARKS
GRAND ISLAND   SUNNY     33  26  75 W13       29.88R WCI  24
HASTINGS       SUNNY     33  25  72 NW12      29.87F WCI  24
KEARNEY *      SUNNY     36  27  69 W10       29.89S WCI  28
YORK           CLOUDY    34  28  80 W15       29.86S WCI  24
$$

NEZ011>018-030>034-042>045-141600-
NORTHEAST NEBRASKA

CITY           SKY/WX    TMP DP  RH WIND       PRES   REMARKS
NORFOLK        LGT SNOW  28  25  88 W6        29.82R FOG     WCI  22
COLUMBUS *     CLOUDY    30  19  64 W6        29.84S WCI  24
TEKAMAH        CLOUDY    21  15  78 SE13      29.88F WCI   9
$$

NEZ050>053-065>068-078-088>093-141600-
SOUTHEAST NEBRASKA

CITY           SKY/WX    TMP DP  RH WIND       PRES   REMARKS
LINCOLN        CLOUDY    24  15  68 S10       29.89F WCI  14
OMAHA EPPLEY   CLOUDY    24  11  57 S14       29.90F WCI  12
FALLS CITY       N/A     26   9  48 S12       29.95F WCI  16
$$

NEZ044-045-051>053-067-141600-
OMAHA AREA

CITY           SKY/WX    TMP DP  RH WIND       PRES   REMARKS
OMAHA EPPLEY   CLOUDY    24  11  57 S14       29.90F WCI  12
OFFUTT AFB     CLOUDY    25  11  56 S9        29.89F WCI  15
$$



USA.gov is the U.S. government's official web portal to all federal, state and local government web resources and services.